EW7144 Weather Reports


Display with metric or nautical units.
time (UTC)temp
F
wind
direction
speed
MPH
gust
MPH
rain 1hr
in
rain 24hr
in
rain mn
in
humidity
%
barometer
mb
20181019031411 65 281 4.0 14.0 0.00 0.01 0.01 56 1027.7
20181019030410 65 281 0.0 14.0 0.00 0.01 0.01 61 1027.8
20181019025410 65 293 4.0 12.0 0.00 0.01 0.01 60 1027.9
20181019024410 66 287 3.0 14.0 0.00 0.01 0.01 59 1028.0
20181019023410 66 282 2.0 10.0 0.00 0.01 0.01 60 1028.1
20181019022410 65 288 6.0 13.0 0.00 0.01 0.01 59 1028.2
20181019021410 65 288 6.0 12.0 0.00 0.01 0.01 60 1028.4
20181019020410 65 292 0.0 12.0 0.00 0.01 0.01 59 1028.5
20181019015410 66 297 5.0 12.0 0.00 0.01 0.01 63 1028.6
20181019014411 66 317 0.0 10.0 0.00 0.01 0.01 67 1028.7
20181019013410 67 304 1.0 10.0 0.00 0.01 0.01 61 1028.7
20181019012410 67 306 3.0 13.0 0.00 0.01 0.01 65 1028.8
20181019011410 67 308 1.0 14.0 0.00 0.01 0.01 62 1028.9
20181019010410 66 303 2.0 14.0 0.00 0.01 0.01 52 1029.0
20181019005410 66 324 3.0 13.0 0.00 0.01 0.01 54 1029.0
20181019004410 66 289 3.0 12.0 0.00 0.01 0.01 53 1029.0
20181019003410 65 293 3.0 12.0 0.00 0.01 0.01 53 1029.1
20181019002410 65 287 0.0 9.0 0.00 0.01 0.01 57 1029.2
20181019001410 65 308 1.0 10.0 0.00 0.01 0.01 62 1029.3
20181019000410 65 292 5.0 12.0 0.00 0.01 0.01 62 1029.4
20181018235410 64 305 7.0 14.0 0.00 0.01 0.01 63 1029.5
20181018234411 65 299 3.0 13.0 0.00 0.01 0.01 59 1029.6
20181018233410 65 318 5.0 14.0 0.00 0.01 0.01 56 1029.6
20181018232410 65 305 2.0 12.0 0.00 0.01 0.01 53 1029.6
20181018231410 65 297 1.0 9.0 0.00 0.01 0.01 56 1029.7
20181018230411 64 297 3.0 14.0 0.00 0.01 0.01 51 1029.7
20181018225410 64 310 2.0 13.0 0.00 0.01 0.01 53 1029.8
20181018224410 64 306 5.0 12.0 0.00 0.01 0.01 52 1029.8
20181018223410 64 295 6.0 10.0 0.00 0.01 0.01 51 1029.9
20181018222410 63 301 1.0 8.0 0.00 0.01 0.01 53 1030.0
20181018221410 62 295 0.0 8.0 0.00 0.01 0.01 63 1030.0
20181018220410 62 295 0.0 7.0 0.00 0.01 0.01 67 1030.2
20181018215410 62 287 4.0 10.0 0.00 0.01 0.01 64 1030.2
20181018214410 62 290 3.0 9.0 0.00 0.01 0.01 66 1030.4
20181018213410 61 310 0.0 6.0 0.00 0.01 0.01 69 1030.4
20181018212410 60 336 0.0 2.0 0.00 0.01 0.01 73 1030.3
20181018211410 59 337 0.0 1.0 0.00 0.01 0.01 75 1030.3
20181018210410 59 342 0.0 0.0 0.00 0.01 0.01 77 1030.3
20181018205411 59 354 0.0 0.0 0.00 0.01 0.01 74 1030.3
20181018204410 58 354 0.0 0.0 0.00 0.01 0.01 75 1030.3
20181018203410 58 354 0.0 0.0 0.00 0.01 0.01 72 1030.3
20181018202410 57 354 0.0 0.0 0.00 0.01 0.01 76 1030.2
20181018201412 54 354 0.0 0.0 0.00 0.01 0.01 78 1030.4
20181018200410 53 354 0.0 0.0 0.00 0.01 0.01 78 1030.4
20181018195410 52 353 0.0 0.0 0.00 0.01 0.01 86 1030.3
20181018194411 51 354 0.0 0.0 0.00 0.01 0.01 89 1030.3
20181018193410 50 354 0.0 0.0 0.00 0.01 0.01 89 1030.3
20181018192410 51 353 0.0 0.0 0.00 0.01 0.01 90 1030.3
20181018191411 50 353 0.0 0.0 0.00 0.01 0.01 93 1030.2
20181018190410 50 353 0.0 0.0 0.00 0.01 0.01 93 1030.1
20181018185410 49 352 0.0 0.0 0.00 0.01 0.01 94 1030.1
20181018184410 49 354 0.0 0.0 0.00 0.01 0.01 93 1030.0
20181018183411 48 354 0.0 0.0 0.00 0.01 0.01 93 1029.9
20181018182410 47 354 0.0 0.0 0.01 0.01 0.01 95 1029.8
20181018181410 47 355 0.0 0.0 0.01 0.01 0.01 94 1029.8
20181018180410 47 355 0.0 0.0 0.01 0.01 0.01 95 1029.6
20181018175410 47 355 0.0 0.0 0.01 0.01 0.01 95 1029.6
20181018174410 47 355 0.0 0.0 0.01 0.01 0.01 95 1029.6
20181018173409 47 355 0.0 0.0 0.01 0.01 0.01 95 1029.4
20181018172410 47 355 0.0 0.0 0.00 0.00 0.00 95 1029.4
20181018171410 48 354 0.0 0.0 0.00 0.00 0.00 95 1029.3
20181018170411 48 350 0.0 0.0 0.00 0.00 0.00 96 1029.3
20181018165410 49 354 0.0 0.0 0.00 0.00 0.00 96 1029.3
20181018164411 49 354 0.0 0.0 0.00 0.00 0.00 96 1029.3
20181018163410 49 354 0.0 0.0 0.00 0.00 0.00 96 1029.3
20181018162410 49 354 0.0 0.0 0.00 0.00 0.00 95 1029.3
20181018161410 49 354 0.0 0.0 0.00 0.00 0.00 96 1029.4
20181018160410 49 355 0.0 0.0 0.00 0.00 0.00 96 1029.4
20181018155410 49 354 0.0 0.0 0.00 0.00 0.00 95 1029.5
20181018154410 50 354 0.0 0.0 0.00 0.00 0.00 96 1029.5
20181018153411 50 354 0.0 0.0 0.00 0.00 0.00 95 1029.5
20181018152410 50 354 0.0 0.0 0.00 0.00 0.00 96 1029.6
20181018151410 50 354 0.0 0.0 0.00 0.00 0.00 95 1029.5
20181018150410 50 354 0.0 0.0 0.00 0.00 0.00 95 1029.6
20181018145411 50 354 0.0 0.0 0.00 0.00 0.00 95 1029.6
20181018144410 50 353 0.0 0.0 0.00 0.00 0.00 95 1029.7
20181018143410 50 354 0.0 0.0 0.00 0.00 0.00 95 1029.7
20181018142411 50 353 0.0 0.0 0.00 0.00 0.00 95 1029.7
20181018141411 50 353 0.0 0.0 0.00 0.00 0.00 94 1029.7
20181018140411 50 354 0.0 0.0 0.00 0.00 0.00 94 1029.7
20181018135410 51 354 0.0 0.0 0.00 0.00 0.00 94 1029.6
20181018134412 51 353 0.0 0.0 0.00 0.00 0.00 94 1029.7
20181018133410 51 353 0.0 0.0 0.00 0.00 0.00 94 1029.6
20181018132410 51 353 0.0 0.0 0.00 0.00 0.00 94 1029.6
20181018131410 51 353 0.0 0.0 0.00 0.00 0.00 94 1029.8
20181018130411 52 354 0.0 0.0 0.00 0.00 0.00 94 1029.9
20181018125410 52 354 0.0 0.0 0.00 0.00 0.00 93 1030.0
20181018124409 52 353 0.0 0.0 0.00 0.00 0.00 93 1030.1
20181018123410 52 354 0.0 0.0 0.00 0.00 0.00 93 1030.1
20181018122410 52 354 0.0 0.0 0.00 0.00 0.00 93 1030.0
20181018121410 52 354 0.0 0.0 0.00 0.00 0.00 93 1030.1
20181018120410 52 354 0.0 0.0 0.00 0.00 0.00 94 1030.2
20181018115410 52 354 0.0 0.0 0.00 0.00 0.00 93 1030.1
20181018114410 52 354 0.0 0.0 0.00 0.00 0.00 94 1030.1
20181018113410 52 354 0.0 0.0 0.00 0.00 0.00 93 1030.2
20181018112410 52 353 0.0 0.0 0.00 0.00 0.00 93 1030.3
20181018111410 53 354 0.0 0.0 0.00 0.00 0.00 93 1030.2
20181018110410 53 354 0.0 0.0 0.00 0.00 0.00 92 1030.1
20181018105410 53 354 0.0 0.0 0.00 0.00 0.00 92 1030.0
20181018104409 54 354 0.0 0.0 0.00 0.00 0.00 91 1030.0
20181018103410 54 354 0.0 0.0 0.00 0.00 0.00 91 1030.0
20181018102410 55 354 0.0 0.0 0.00 0.00 0.00 91 1029.9
20181018101410 55 354 0.0 0.0 0.00 0.00 0.00 92 1029.9
20181018100410 55 354 0.0 0.0 0.00 0.00 0.00 92 1029.9
20181018095410 55 354 0.0 0.0 0.00 0.00 0.00 92 1029.9
20181018094410 55 354 0.0 0.0 0.00 0.00 0.00 92 1029.7
20181018093410 55 354 0.0 0.0 0.00 0.00 0.00 92 1029.7
20181018092409 55 354 0.0 0.0 0.00 0.00 0.00 92 1029.5
20181018091410 55 354 0.0 0.0 0.00 0.00 0.00 92 1029.5
20181018090410 55 354 0.0 0.0 0.00 0.00 0.00 93 1029.4
20181018085411 54 353 0.0 0.0 0.00 0.00 0.00 92 1029.3
20181018084410 55 354 0.0 0.0 0.00 0.00 0.00 92 1029.2
20181018083410 54 354 0.0 0.0 0.00 0.00 0.00 92 1029.1
20181018082410 54 352 0.0 0.0 0.00 0.00 0.00 92 1028.9
20181018081410 55 354 0.0 0.0 0.00 0.00 0.00 91 1028.8
20181018080410 55 354 0.0 0.0 0.00 0.00 0.00 91 1028.6
20181018075410 55 354 0.0 0.0 0.00 0.00 0.00 91 1028.5
20181018074410 55 354 0.0 0.0 0.00 0.00 0.00 90 1028.3
20181018073410 55 352 0.0 3.0 0.00 0.00 0.00 90 1028.3
20181018072410 56 342 0.0 0.0 0.00 0.00 0.00 89 1028.1
20181018071410 56 330 0.0 0.0 0.00 0.00 0.00 89 1028.1
20181018070410 56 328 0.0 0.0 0.00 0.00 0.00 89 1027.9
20181018065410 56 327 0.0 3.0 0.00 0.00 0.00 88 1027.7
20181018064410 57 330 0.0 1.0 0.00 0.00 0.00 87 1027.6
20181018063410 57 305 0.0 1.0 0.00 0.00 0.00 86 1027.4
20181018062410 58 317 0.0 5.0 0.00 0.00 0.00 85 1027.3
20181018061410 58 316 0.0 0.0 0.00 0.00 0.00 84 1027.2
20181018060410 58 332 0.0 1.0 0.00 0.00 0.00 83 1027.1
20181018055411 59 314 0.0 5.0 0.00 0.00 0.00 82 1027.1
20181018054410 59 321 0.0 0.0 0.00 0.00 0.00 80 1027.1
20181018053410 60 310 0.0 6.0 0.00 0.00 0.00 79 1027.0
20181018052410 62 322 1.0 3.0 0.00 0.00 0.00 76 1026.9
20181018051410 62 288 0.0 0.0 0.00 0.00 0.00 78 1026.8
20181018050411 62 297 0.0 6.0 0.00 0.00 0.00 78 1026.6
20181018045410 62 284 0.0 0.0 0.00 0.00 0.00 76 1026.6
20181018044409 62 310 0.0 1.0 0.00 0.00 0.00 77 1026.5
20181018043410 62 305 0.0 7.0 0.00 0.00 0.00 76 1026.3
20181018042410 61 317 0.0 0.0 0.00 0.00 0.00 76 1026.3
20181018041410 60 315 0.0 3.0 0.00 0.00 0.00 78 1026.2
20181018040410 61 307 1.0 3.0 0.00 0.00 0.00 78 1026.1
20181018035410 61 329 0.0 5.0 0.00 0.00 0.00 77 1026.1
20181018034410 60 322 0.0 0.0 0.00 0.00 0.00 80 1026.0
20181018033410 60 307 0.0 9.0 0.00 0.00 0.00 78 1025.8
20181018032410 60 301 0.0 9.0 0.00 0.00 0.00 79 1025.8